Tracking 19651 objects as of 22-Apr-2019
HD Live streaming from Space Station
objects crossing your sky now

CZ-1 DEB

Track CZ-1 DEB now!
10-day predictions


NORAD ID: 25882
Int'l Code: 1970-034D
Perigee: 435.3 km
Apogee: 1,548.8 km
Inclination: 68.4 °
Period: 104.8 minutes
Semi major axis: 7363 km
RCS: 0.0095 m2 (small)
Launch date: April 24, 1970
Source: People's Republic of China (PRC)
Launch site: Jiuquan Satellite Launch Center, China (JSC)

Note: This is SATELLITE DEBRIS
aabbcc
Your satellite tracking list
Your tracking list is empty




NASA's NSSDC Master Catalog

Two Line Element Set (TLE):
1 25882U 70034D   19111.62180014 +.00000387 +00000-0 +57299-4 0  9998
2 25882 068.3778 187.9825 0756166 114.2151 253.9829 13.74087075962010
Source of the keplerian elements: AFSPC